Wind_Speed
4 5 8 9 5 3 5 4 1 2 5 2 6 9 14 19 12 17 27 28 32 37 34 33 30 31 36 32 28 25 23 21 19 18 17 15 13 12 14 14 15 15 17 18
5 6 7 5 5 5 7 7 2 3 6 2 8 11 13 6 7 6 20 28 32 36 35 33 32 34 33 34 31 28 25 23 21 21 19 16 11 11 11 13 14 16 11 13
6 7 4 3 8 5 4 8 8 7 5 5 4 8 6 5 10 11 11 24 33 36 35 32 33 34 32 35 35 29 27 25 23 21 20 18 15 15 11 10 11 15 13 15
6 5 4 4 4 5 5 6 14 15 9 3 2 5 6 5 4 6 17 20 24 35 37 30 34 36 34 30 33 30 29 27 24 19 19 20 18 13 8 9 12 8 9 11
8 2 3 4 5 5 8 8 12 12 2 5 3 2 7 4 8 10 18 26 27 34 39 35 33 39 35 30 31 31 31 29 27 22 20 21 20 16 10 9 9 9 9 7
8 2 3 7 4 6 6 7 8 4 4 2 4 3 5 4 8 8 8 26 32 31 39 36 36 37 37 33 33 33 32 32 31 25 23 21 21 17 13 12 10 7 6 3
7 7 4 4 5 4 5 6 1 1 3 6 5 1 9 10 7 8 7 19 26 23 37 39 35 39 41 38 35 37 36 35 34 28 24 23 22 20 14 14 11 8 5 3
5 8 3 5 7 5 7 9 5 5 3 4 1 5 6 8 10 10 16 20 22 26 28 34 41 38 41 42 39 36 41 38 35 32 27 24 24 21 15 14 10 7 5 5
6 6 5 5 4 7 2 5 6 8 3 3 3 7 9 8 7 7 7 16 18 19 24 24 32 38 36 40 42 36 40 42 39 36 31 27 24 18 15 13 9 6 6 6
7 3 6 6 2 1 6 4 4 3 5 3 4 6 6 7 8 9 9 18 10 10 12 21 23 29 34 32 37 35 34 41 41 37 33 29 23 18 15 11 10 9 10 7
6 5 7 2 3 7 2 1 6 5 5 6 2 6 7 9 9 9 8 11 5 7 9 11 22 28 27 32 35 35 38 43 39 35 32 30 23 18 15 13 12 10 10 7
10 5 6 12 5 3 3 2 5 5 6 2 4 6 4 9 8 12 18 15 12 7 10 14 20 25 29 32 35 37 39 40 32 31 31 28 23 18 17 17 14 12 11 9
6 2 3 10 7 4 2 3 4 3 4 6 6 6 2 6 7 13 18 17 14 11 7 12 16 23 23 30 36 40 39 39 31 29 28 26 22 20 20 18 15 14 12 11
6 3 7 8 5 3 1 2 2 4 3 3 6 6 6 7 9 12 18 19 15 9 8 13 18 21 25 29 35 40 40 36 30 29 29 27 24 23 20 19 17 16 13 11
5 3 1 0 5 4 4 6 4 4 3 4 6 9 10 12 14 20 27 18 11 11 17 20 22 21 24 30 36 40 41 33 31 32 31 26 26 23 22 21 17 15 12 11
6 2 3 2 4 5 5 10 7 7 5 4 6 7 6 22 20 10 18 13 12 13 21 24 27 26 28 31 32 33 33 33 35 34 30 28 28 27 24 22 18 16 14 12
3 3 4 3 5 5 6 6 3 4 2 2 5 6 17 20 12 22 21 18 20 14 23 28 30 27 28 28 28 30 34 36 36 32 29 31 30 29 27 23 18 17 15 13
5 5 2 2 4 2 5 4 1 6 5 4 3 10 16 23 11 12 18 22 23 20 21 30 32 31 30 28 27 31 35 36 34 31 30 32 31 28 28 23 20 18 16 13
2 4 3 2 2 1 2 4 4 4 1 4 8 14 24 20 18 20 26 18 20 25 30 33 34 34 29 28 30 33 35 35 34 33 34 31 32 30 28 25 22 19 15 15
5 7 4 2 3 5 4 6 8 6 2 2 4 8 11 19 9 4 23 25 23 11 22 33 35 34 29 28 30 32 34 33 33 33 29 31 28 27 26 23 21 16 15 11
4 4 4 2 2 5 5 6 5 2 6 10 10 14 13 4 4 14 19 26 25 22 5 22 33 33 32 33 33 34 31 29 21 13 18 21 22 22 19 18 16 15 14 12
3 4 3 3 2 5 10 1 7 6 5 5 7 8 14 20 21 22 29 29 28 25 17 14 17 29 34 34 36 33 29 18 13 11 22 23 26 22 19 15 13 13 12 13
3 5 3 7 5 3 5 5 5 7 6 7 9 7 3 14 19 19 21 28 29 24 17 9 16 24 29 31 33 30 17 18 21 23 29 30 28 26 19 11 13 15 16 15
3 4 2 3 4 5 12 19 18 17 19 13 13 8 6 10 22 25 14 11 15 17 16 13 12 20 25 26 26 22 19 25 23 26 29 28 27 21 19 18 14 16 19 16
4 3 3 5 11 19 18 20 25 23 18 25 22 21 11 9 9 12 22 24 11 7 11 11 10 14 18 17 3 8 22 25 23 26 29 29 27 27 22 17 16 19 15 7
9 7 5 6 11 8 16 11 10 14 29 31 25 22 12 9 9 5 10 8 9 11 10 10 7 13 11 15 14 17 30 25 20 29 33 30 27 25 20 20 20 19 14 11
Wind_Direction
13 54 253 257 194 198 229 175 308 104 212 150 193 225 240 192 221 215 207 206 209 214 219 222 223 217 217 219 216 219 221 220 219 220 221 225 240 247 251 259 273 291 295 291
17 247 256 254 254 203 241 113 113 33 229 182 236 255 268 124 166 250 215 206 211 217 223 226 223 221 219 220 217 219 223 221 218 224 232 240 253 262 266 270 286 296 298 298
177 226 326 276 302 320 248 159 193 166 239 352 11 288 322 107 171 216 217 213 217 217 221 223 221 213 212 215 214 218 223 223 222 229 230 237 241 254 262 279 293 289 295 309
233 281 239 319 286 174 299 183 172 157 154 207 88 281 305 294 283 244 224 217 218 219 223 221 214 209 212 217 217 221 224 225 226 230 231 234 246 262 264 275 302 317 299 307
239 267 301 274 225 170 260 152 149 155 107 82 17 94 271 30 275 251 239 230 224 218 221 215 217 213 216 220 221 227 228 230 229 232 235 236 243 248 254 269 278 281 277 298
235 266 212 231 258 177 148 70 46 54 74 335 241 174 261 223 216 257 244 231 222 217 215 220 218 219 218 224 226 231 232 233 230 235 237 239 242 245 249 256 265 255 272 297
322 271 244 214 294 112 75 85 25 309 13 226 269 260 242 225 233 233 219 216 210 210 215 219 223 221 221 223 227 232 234 234 234 234 239 241 241 246 258 263 262 264 253 217
170 320 199 164 172 218 177 165 161 203 195 257 201 245 261 188 224 272 218 207 196 201 206 216 226 225 222 224 229 236 236 237 236 235 238 240 241 247 258 259 250 239 216 211
163 269 285 221 176 152 211 216 183 106 19 58 264 290 295 297 190 230 177 184 186 196 207 222 224 224 224 225 229 240 239 241 237 236 235 236 238 247 258 257 233 218 203 204
219 304 229 277 155 276 153 175 76 12 128 229 277 279 238 287 272 178 202 210 222 183 209 233 222 225 226 229 231 240 243 248 241 237 233 233 234 241 256 235 214 198 201 200
139 130 264 11 210 226 339 260 54 122 126 157 172 263 221 241 236 255 254 245 324 266 283 281 239 226 228 228 229 236 239 246 240 234 229 228 229 235 240 216 203 196 198 197
199 163 223 224 264 289 193 11 135 137 244 258 147 265 255 257 240 228 250 267 267 274 285 284 223 223 224 231 234 233 238 237 237 231 226 221 225 227 217 207 206 200 198 203
183 220 271 320 349 359 94 173 143 137 89 202 140 255 272 291 276 245 233 226 241 279 269 257 219 227 227 229 230 229 235 233 230 223 217 216 218 214 204 202 197 196 194 191
130 133 164 204 194 161 22 335 107 108 110 181 221 269 271 247 235 241 235 241 218 213 227 241 221 226 229 231 230 227 227 227 221 214 210 213 212 200 195 189 186 182 189 195
86 72 356 111 145 172 48 3 338 193 217 164 274 209 232 219 215 224 223 244 237 220 201 219 220 214 223 225 225 222 221 222 210 203 204 208 197 191 188 185 180 183 188 194
355 31 343 35 339 56 76 33 43 49 341 304 304 249 7 329 304 279 232 223 208 212 200 198 204 209 211 208 210 212 214 207 202 200 202 196 189 187 186 184 186 193 200 204
46 88 35 312 357 29 21 336 16 133 281 244 4 305 313 313 278 257 251 238 233 212 203 201 201 209 208 208 208 207 208 202 199 201 198 190 190 190 188 187 191 198 203 213
137 109 102 257 24 60 211 218 275 156 115 84 291 310 318 300 275 356 337 291 271 234 223 210 211 216 212 211 211 208 202 200 202 200 197 195 193 191 187 191 197 205 211 220
53 123 88 139 128 17 21 241 241 195 201 61 332 327 336 349 81 24 23 5 278 267 241 226 227 218 215 214 211 205 202 204 202 202 199 198 193 192 191 198 200 209 216 204
52 69 111 94 138 215 181 271 293 172 344 60 338 319 334 352 65 288 24 22 26 266 246 233 228 220 219 217 211 206 205 204 209 207 199 193 193 193 195 205 207 209 202 198
359 5 101 115 175 282 235 267 344 123 222 300 338 333 343 4 317 336 19 24 18 16 341 241 243 234 223 213 207 202 201 204 233 242 207 196 188 195 206 209 215 208 192 191
185 142 194 88 139 288 200 273 168 206 215 271 313 327 344 343 343 26 24 18 15 11 359 305 258 237 227 216 208 199 205 218 205 196 187 192 192 201 208 213 229 207 199 189
275 186 198 181 223 240 214 273 217 206 207 219 235 238 320 325 338 338 12 10 11 6 0 324 257 240 226 220 210 206 214 185 181 186 193 194 191 190 190 196 208 222 202 194
257 172 219 2 291 253 276 251 261 262 265 250 230 207 192 237 272 305 312 332 339 346 349 326 253 230 222 213 219 219 211 193 196 191 196 187 179 178 192 190 194 197 208 187
214 135 186 269 284 288 289 280 265 252 266 267 257 255 242 152 145 235 268 274 296 330 344 334 290 251 210 209 137 348 207 199 189 193 196 185 184 188 188 188 191 192 191 186
188 189 169 222 248 237 275 314 311 271 247 251 256 272 274 304 317 276 281 280 303 320 349 345 282 261 237 226 265 227 229 216 193 187 197 192 196 187 189 183 180 179 179 158
Height
1484 1494 1501 1493 1493 1493 1494 1501 1500 1495 1492 1484 1489 1483 1481 1488 1495 1494 1495 1496 1498 1500 1504 1508 1511 1515 1518 1522 1525 1527 1529 1531 1533 1534 1536 1538 1538 1539 1540 1540 1539 1539 1537 1536
1492 1499 1483 1485 1486 1490 1491 1503 1508 1498 1489 1488 1483 1488 1475 1480 1487 1491 1492 1491 1493 1497 1500 1503 1507 1511 1514 1517 1521 1524 1526 1528 1530 1532 1534 1536 1538 1538 1538 1538 1537 1535 1535 1534
1496 1483 1478 1482 1483 1489 1490 1500 1499 1499 1493 1491 1496 1494 1483 1479 1483 1487 1487 1487 1489 1491 1494 1498 1501 1506 1510 1513 1517 1519 1522 1525 1528 1530 1532 1534 1535 1535 1535 1537 1537 1534 1533 1532
1486 1477 1478 1483 1486 1486 1497 1473 1477 1485 1503 1516 1500 1522 1490 1478 1478 1478 1477 1478 1481 1484 1487 1493 1497 1501 1505 1509 1513 1515 1519 1522 1525 1528 1529 1530 1531 1533 1534 1535 1534 1533 1531 1531
1486 1476 1479 1483 1483 1479 1486 1469 1476 1487 1504 1509 1514 1525 1495 1482 1481 1473 1468 1470 1475 1476 1481 1487 1492 1498 1501 1506 1509 1512 1515 1519 1522 1524 1526 1527 1528 1531 1533 1534 1533 1532 1531 1530
1479 1473 1474 1473 1470 1473 1474 1484 1494 1504 1511 1529 1517 1516 1493 1490 1477 1467 1462 1464 1466 1470 1476 1482 1489 1494 1498 1502 1506 1509 1511 1513 1518 1521 1523 1524 1526 1530 1531 1531 1531 1530 1529 1528
1480 1474 1468 1467 1473 1473 1477 1497 1526 1524 1531 1532 1516 1512 1487 1466 1463 1461 1460 1459 1464 1468 1472 1477 1483 1487 1493 1497 1501 1504 1508 1509 1513 1517 1519 1522 1525 1527 1529 1529 1529 1528 1528 1527
1500 1501 1467 1461 1467 1471 1478 1489 1516 1524 1533 1521 1510 1512 1478 1462 1459 1457 1459 1461 1464 1466 1468 1471 1475 1480 1485 1492 1496 1499 1503 1507 1510 1514 1517 1519 1523 1525 1526 1527 1526 1526 1526 1526
1500 1492 1462 1459 1458 1463 1472 1486 1475 1513 1518 1523 1514 1493 1464 1450 1456 1455 1457 1459 1460 1462 1466 1469 1470 1473 1478 1486 1490 1494 1498 1503 1507 1510 1514 1517 1520 1522 1523 1522 1524 1524 1525 1526
1470 1490 1464 1456 1455 1456 1462 1463 1490 1504 1526 1526 1516 1507 1492 1459 1453 1455 1456 1457 1458 1458 1461 1463 1467 1470 1474 1480 1485 1491 1495 1498 1502 1506 1511 1514 1518 1520 1520 1520 1522 1523 1525 1525
1466 1477 1470 1458 1464 1468 1468 1473 1481 1489 1502 1521 1523 1505 1460 1452 1447 1444 1443 1447 1449 1451 1453 1456 1459 1464 1470 1476 1481 1487 1491 1494 1498 1502 1507 1510 1514 1516 1517 1518 1520 1522 1523 1524
1454 1472 1484 1474 1456 1453 1454 1457 1473 1497 1498 1504 1501 1492 1446 1445 1443 1444 1441 1442 1446 1449 1450 1450 1454 1458 1465 1470 1476 1480 1485 1489 1494 1498 1503 1507 1510 1513 1514 1516 1518 1520 1523 1524
1452 1473 1489 1480 1469 1456 1459 1460 1466 1478 1486 1498 1502 1489 1445 1441 1440 1439 1439 1441 1445 1447 1449 1450 1451 1454 1458 1465 1471 1475 1479 1484 1489 1493 1498 1503 1506 1508 1511 1513 1516 1518 1521 1523
1444 1469 1470 1485 1473 1463 1462 1459 1458 1470 1489 1491 1488 1468 1449 1442 1439 1434 1434 1435 1441 1444 1446 1448 1450 1452 1455 1460 1465 1470 1474 1479 1484 1488 1494 1498 1501 1504 1507 1511 1514 1517 1520 1522
1446 1464 1460 1458 1459 1457 1460 1467 1463 1464 1467 1472 1462 1466 1446 1437 1432 1428 1429 1432 1437 1439 1442 1445 1447 1450 1452 1456 1460 1465 1471 1475 1479 1484 1489 1494 1498 1502 1506 1511 1514 1517 1519 1520
1451 1469 1464 1467 1457 1458 1476 1468 1465 1467 1470 1461 1460 1459 1449 1442 1436 1431 1430 1431 1433 1435 1437 1440 1446 1447 1449 1452 1458 1463 1467 1471 1475 1480 1485 1490 1495 1499 1504 1508 1511 1514 1516 1517
1460 1467 1474 1472 1465 1464 1482 1477 1471 1474 1472 1472 1476 1460 1452 1440 1435 1430 1431 1432 1432 1431 1434 1437 1442 1445 1448 1452 1456 1459 1464 1469 1474 1479 1483 1486 1491 1495 1499 1504 1508 1510 1513 1515
1462 1469 1477 1478 1470 1488 1476 1468 1467 1467 1467 1466 1465 1458 1450 1438 1435 1438 1435 1430 1430 1429 1432 1435 1440 1443 1446 1450 1455 1458 1462 1467 1472 1477 1482 1485 1488 1492 1497 1502 1505 1507 1510 1512
1455 1464 1477 1482 1491 1477 1474 1470 1471 1467 1466 1461 1459 1451 1442 1432 1426 1433 1434 1430 1426 1429 1431 1432 1436 1440 1443 1447 1452 1456 1461 1464 1468 1472 1475 1481 1487 1491 1497 1500 1502 1503 1507 1509
1458 1460 1471 1486 1482 1487 1473 1462 1459 1461 1474 1456 1456 1453 1448 1435 1444 1444 1436 1433 1428 1426 1428 1432 1435 1438 1440 1443 1448 1452 1457 1463 1468 1468 1474 1481 1488 1493 1497 1499 1500 1502 1505 1508
1474 1477 1483 1489 1487 1479 1463 1457 1458 1473 1474 1454 1452 1451 1448 1448 1446 1441 1436 1432 1429 1426 1427 1430 1433 1436 1437 1439 1444 1449 1456 1461 1467 1468 1465 1482 1489 1494 1499 1502 1503 1503 1503 1506
1476 1480 1483 1489 1485 1480 1453 1455 1461 1454 1451 1451 1449 1449 1446 1447 1445 1438 1433 1431 1427 1425 1425 1427 1429 1431 1433 1436 1440 1446 1450 1459 1463 1463 1468 1471 1481 1484 1490 1498 1504 1504 1504 1505
1482 1472 1476 1475 1469 1455 1453 1451 1448 1447 1448 1447 1445 1444 1443 1445 1441 1446 1435 1437 1435 1434 1432 1430 1430 1431 1433 1436 1444 1448 1455 1458 1459 1463 1469 1471 1477 1480 1484 1488 1492 1502 1503 1502
1467 1466 1470 1465 1453 1449 1448 1449 1448 1446 1444 1444 1441 1440 1437 1433 1437 1442 1442 1439 1438 1440 1437 1434 1432 1434 1434 1437 1443 1448 1450 1449 1453 1458 1462 1469 1474 1477 1481 1479 1488 1494 1503 1499
1466 1465 1466 1466 1451 1447 1442 1441 1442 1443 1443 1442 1439 1440 1438 1434 1434 1441 1439 1432 1433 1434 1434 1434 1433 1434 1436 1439 1442 1449 1448 1448 1454 1458 1463 1468 1471 1476 1478 1482 1485 1493 1500 1500
1458 1458 1464 1461 1444 1446 1441 1439 1439 1439 1439 1438 1440 1438 1436 1435 1438 1432 1436 1434 1433 1431 1431 1432 1432 1433 1435 1438 1439 1437 1450 1448 1446 1450 1457 1464 1468 1474 1478 1480 1485 1491 1497 1499